Weather History for Newberry, MI

Change the Weather History Date:

Sunday, July 22, 2012

  Actual Average Record
Temperature  
Mean Temperature 68 °F -  
Max Temperature 84 °F 77 °F 89 °F (1917)
Min Temperature 51 °F 52 °F 41 °F (1947)
Cooling Degree Days 2    
Growing Degree Days 18 (Base 50)    
Moisture  
Dew Point 57 °F    
Average Humidity 70    
Maximum Humidity 100    
Minimum Humidity 30    
Precipitation  
Precipitation 0.00 in - - ()
Sea Level Pressure  
Sea Level Pressure 30.01 in    
Wind  
Wind Speed 2 mph (SSW)    
Max Wind Speed 12 mph    
Max Gust Speed -    
Visibility 8 miles    
Events      
Averages and records for this station are not official NWS values.
T = Trace of Precipitation, MM = Missing Value Source: NWS Daily Summary

Daily Weather History Graph

Daily Weather History Graph

Search for Another Location

Airport:

Trip Planner

Search our weather history database for the weather conditions in past years. The results will help you decide how hot, cold, wet, or windy it might be!

Date:

Astronomy

Jul. 22, 2012 Rise Set
Actual Time 6:12 AM EDT 9:23 PM EDT
Civil Twilight 5:36 AM EDT 9:59 PM EDT
Nautical Twilight 4:49 AM EDT 10:46 PM EDT
Astronomical Twilight 3:50 AM EDT 11:44 PM EDT
Moon 10:14 AM EDT 10:47 PM EDT
Length of Visible Light 16h 23m
Length of Day
15h 11m
Waxing Crescent, 13% of the Moon is Illuminated
Jul 22
Waxing Crescent
Jul 26
First Quarter
Aug 1
Full
Aug 9
Last Quarter
Aug 17
New

Hourly Weather History & Observations

Time (EDT) Temp. Heat Index Dew Point Humidity Pressure Visibility Wind Dir Wind Speed Gust Speed Precip Events Conditions
12:15 AM 57.2 °F - 55.4 °F 94% 30.03 in 5.0 mi Calm Calm - N/A   Clear
12:35 AM 55.4 °F - 53.6 °F 94% 30.04 in 7.0 mi Calm Calm - N/A   Clear
12:54 AM 55.4 °F - 53.6 °F 94% 30.04 in 7.0 mi Calm Calm - N/A   Clear
1:15 AM 55.4 °F - 53.6 °F 94% 30.03 in 7.0 mi Calm Calm - N/A   Clear
1:35 AM 53.6 °F - 51.8 °F 94% 30.03 in 5.0 mi Calm Calm - N/A   Clear
1:54 AM 53.6 °F - 51.8 °F 94% 30.03 in 5.0 mi Calm Calm - N/A   Clear
2:15 AM 53.6 °F - 53.6 °F 100% 30.03 in 7.0 mi Calm Calm - N/A   Clear
2:34 AM 55.4 °F - 53.6 °F 94% 30.03 in 7.0 mi Calm Calm - N/A   Clear
2:55 AM 51.8 °F - 51.8 °F 100% 30.03 in 7.0 mi Calm Calm - N/A   Clear
3:15 AM 53.6 °F - 51.8 °F 94% 30.02 in 7.0 mi Calm Calm - N/A   Clear
3:34 AM 53.6 °F - 51.8 °F 94% 30.03 in 7.0 mi WSW 3.5 mph - N/A   Clear
3:55 AM 53.6 °F - 51.8 °F 94% 30.03 in 7.0 mi Calm Calm - N/A   Clear
4:15 AM 53.6 °F - 51.8 °F 94% 30.03 in 5.0 mi WSW 3.5 mph - N/A   Clear
4:34 AM 53.6 °F - 51.8 °F 94% 30.04 in 5.0 mi SW 3.5 mph - N/A   Clear
4:55 AM 51.8 °F - 51.8 °F 100% 30.04 in 5.0 mi WSW 4.6 mph - N/A   Clear
5:15 AM 51.8 °F - 51.8 °F 100% 30.04 in 5.0 mi Calm Calm - N/A   Clear
5:34 AM 53.6 °F - 51.8 °F 94% 30.05 in 5.0 mi Calm Calm - N/A   Clear
5:55 AM 53.6 °F - 51.8 °F 94% 30.05 in 5.0 mi West 3.5 mph - N/A   Clear
6:14 AM 53.6 °F - 51.8 °F 94% 30.05 in 5.0 mi Calm Calm - N/A   Clear
6:35 AM 51.8 °F - 51.8 °F 100% 30.06 in 4.0 mi Calm Calm - N/A   Clear
6:55 AM 53.6 °F - 51.8 °F 94% 30.05 in 4.0 mi Calm Calm - N/A   Clear
7:15 AM 53.6 °F - 51.8 °F 94% 30.05 in 5.0 mi Calm Calm - N/A   Clear
7:35 AM 55.4 °F - 53.6 °F 94% 30.05 in 5.0 mi Calm Calm - N/A   Clear
7:54 AM 57.2 °F - 55.4 °F 94% 30.05 in 5.0 mi Calm Calm - N/A   Clear
8:35 AM 64.4 °F - 60.8 °F 88% 30.05 in 7.0 mi Calm Calm - N/A   Clear
8:54 AM 66.2 °F - 62.6 °F 88% 30.05 in 7.0 mi Calm Calm - N/A   Clear
9:15 AM 69.8 °F - 62.6 °F 78% 30.05 in 10.0 mi Calm Calm - N/A   Clear
9:35 AM 71.6 °F - 62.6 °F 73% 30.05 in 10.0 mi Calm Calm - N/A   Clear
9:54 AM 73.4 °F - 62.6 °F 69% 30.05 in 10.0 mi Calm Calm - N/A   Clear
10:15 AM 75.2 °F - 62.6 °F 65% 30.06 in 10.0 mi Calm Calm - N/A   Clear
10:34 AM 75.2 °F - 59.0 °F 57% 30.05 in 10.0 mi Calm Calm - N/A   Clear
10:55 AM 77.0 °F - 59.0 °F 54% 30.06 in 10.0 mi WSW 3.5 mph - N/A   Clear
11:15 AM 78.8 °F - 59.0 °F 51% 30.07 in 10.0 mi West 6.9 mph - N/A   Clear
11:34 AM 78.8 °F - 59.0 °F 51% 30.06 in 10.0 mi Calm Calm - N/A   Clear
11:55 AM 78.8 °F - 57.2 °F 47% 30.05 in 10.0 mi SSW 3.5 mph - N/A   Clear
12:15 PM 78.8 °F - 57.2 °F 47% 30.05 in 10.0 mi South 3.5 mph - N/A   Scattered Clouds
12:35 PM 80.6 °F 80.5 °F 55.4 °F 42% 30.05 in 10.0 mi WSW 4.6 mph - N/A   Scattered Clouds
12:55 PM 80.6 °F 80.5 °F 55.4 °F 42% 30.04 in 10.0 mi South 4.6 mph - N/A   Clear
1:14 PM 80.6 °F 80.8 °F 57.2 °F 45% 30.03 in 10.0 mi Calm Calm - N/A   Clear
1:35 PM 82.4 °F - 51.8 °F 35% 30.03 in 10.0 mi Calm Calm - N/A   Clear
1:55 PM 82.4 °F - 48.2 °F 30% 30.03 in 10.0 mi SW 8.1 mph - N/A   Clear
2:14 PM 82.4 °F - 51.8 °F 35% 30.02 in 10.0 mi SW 6.9 mph - N/A   Clear
2:35 PM 82.4 °F - 48.2 °F 30% 30.02 in 10.0 mi WSW 3.5 mph - N/A   Clear
2:55 PM 84.2 °F - 51.8 °F 33% 30.01 in 10.0 mi WSW 4.6 mph - N/A   Clear
3:14 PM 82.4 °F 82.0 °F 57.2 °F 42% 30.01 in 10.0 mi West 5.8 mph - N/A   Clear
3:35 PM 82.4 °F 82.5 °F 59.0 °F 45% 30.01 in 10.0 mi SSW 8.1 mph - N/A   Scattered Clouds
3:54 PM 82.4 °F 81.7 °F 55.4 °F 39% 29.99 in 10.0 mi South 5.8 mph - N/A   Scattered Clouds
4:15 PM 82.4 °F 81.7 °F 55.4 °F 39% 29.99 in 10.0 mi Calm Calm - N/A   Scattered Clouds
4:35 PM 82.4 °F 82.0 °F 57.2 °F 42% 29.99 in 10.0 mi SW 4.6 mph - N/A   Scattered Clouds
4:55 PM 82.4 °F 82.9 °F 60.8 °F 48% 29.99 in 10.0 mi SSW 8.1 mph - N/A   Scattered Clouds
5:15 PM 82.4 °F 82.9 °F 60.8 °F 48% 29.99 in 10.0 mi SSW 10.4 mph - N/A   Scattered Clouds
5:34 PM 82.4 °F 82.9 °F 60.8 °F 48% 29.98 in 10.0 mi South 6.9 mph - N/A   Scattered Clouds
5:55 PM 82.4 °F 83.4 °F 62.6 °F 51% 29.98 in 10.0 mi SSW 11.5 mph - N/A   Scattered Clouds
6:15 PM 80.6 °F 81.5 °F 60.8 °F 51% 29.98 in 10.0 mi South 10.4 mph - N/A   Clear
6:34 PM 80.6 °F 81.5 °F 60.8 °F 51% 29.98 in 10.0 mi South 9.2 mph - N/A   Clear
6:55 PM 80.6 °F 81.5 °F 60.8 °F 51% 29.97 in 10.0 mi South 6.9 mph - N/A   Clear
7:15 PM 80.6 °F 81.5 °F 60.8 °F 51% 29.97 in 10.0 mi South 6.9 mph - N/A   Clear
7:34 PM 78.8 °F - 62.6 °F 57% 29.96 in 10.0 mi South 5.8 mph - N/A   Clear
7:55 PM 78.8 °F - 64.4 °F 61% 29.97 in 10.0 mi South 6.9 mph - N/A   Clear
8:14 PM 77.0 °F - 62.6 °F 61% 29.97 in 10.0 mi South 6.9 mph - N/A   Clear
8:35 PM 75.2 °F - 64.4 °F 69% 29.96 in 10.0 mi South 5.8 mph - N/A   Clear
8:55 PM 73.4 °F - 64.4 °F 73% 29.96 in 10.0 mi SSE 4.6 mph - N/A   Clear
9:14 PM 71.6 °F - 64.4 °F 78% 29.95 in 10.0 mi South 4.6 mph - N/A   Scattered Clouds
9:35 PM 71.6 °F - 64.4 °F 78% 29.95 in 10.0 mi South 5.8 mph - N/A   Clear
9:54 PM 69.8 °F - 64.4 °F 83% 29.96 in 10.0 mi South 6.9 mph - N/A   Clear
10:15 PM 69.8 °F - 64.4 °F 83% 29.95 in 10.0 mi South 5.8 mph - N/A   Clear
10:35 PM 69.8 °F - 62.6 °F 78% 29.95 in 10.0 mi South 8.1 mph - N/A   Clear
10:54 PM 69.8 °F - 62.6 °F 78% 29.95 in 10.0 mi South 8.1 mph - N/A   Clear
11:15 PM 69.8 °F - 64.4 °F 83% 29.94 in 10.0 mi South 9.2 mph - N/A   Clear
11:34 PM 69.8 °F - 64.4 °F 83% 29.93 in 10.0 mi South 6.9 mph - N/A   Clear
11:55 PM 69.8 °F - 66.2 °F 88% 29.93 in 10.0 mi South 6.9 mph - N/A   Clear